Skip Page Navigation
NASA JPL Caltech
NASA Logo - Jet Propulsion Laboratory + View the NASA Portal
+ Center for Near-Earth Object Studies
JPL Home Earth Solar System Stars & Galaxies Technology
JPL Solar System Dynamics
BODIES ORBITS EPHEMERIDES TOOLS PHYSICAL DATA DISCOVERY FAQ SITE MAP
IMPORTANT: The SSD Announcement email list is now available. Major changes are coming in the near future, including possible hostname and/or URL changes. To be notified of such changes, subscribe to this email list.

Please visit this page for more details.


JPL Small-Body Database Browser
Search: [ help ]  
441265 (2007 VF315)
Classification: Main-belt Asteroid          SPK-ID: 2441265
Ephemeris | Orbit Diagram | Orbital Elements | Mission Design | Physical Parameters | Discovery Circumstances ]

[ show orbit diagram ]
Orbital Elements at Epoch 2459000.5 (2020-May-31.0) TDB
Reference: JPL 15 (heliocentric ecliptic J2000)
 Element Value Uncertainty (1-sigma)   Units 
e .1989721596128428 1.378e-07  
a 2.603951867378905 4.5481e-08 au
q 2.085837940798629 3.8918e-07 au
i 10.77681824746074 7.6776e-06 deg
node 235.7685624228603 4.8764e-05 deg
peri 141.0389486886214 5.9058e-05 deg
M 25.23301009985654 3.4824e-05 deg
tp 2458892.924241714390
(2020-Feb-13.42424171)
0.00014644 TDB
period 1534.786092882352
4.20
4.021e-05
1.101e-07
d
yr
n .2345603740283536 6.1453e-09 deg/d
Q 3.122065793959181 5.453e-08 au
  Orbit Determination Parameters
   # obs. used (total)      81  
   data-arc span      4309 days (11.80 yr)  
   first obs. used      2007-11-05  
   last obs. used      2019-08-23  
   planetary ephem.      DE431  
   SB-pert. ephem.      SB431-N16  
   condition code      0  
   norm. resid. RMS      .53546  
   source      ORB  
   producer      Otto Matic  
   solution date      2019-Sep-24 07:41:56  

Additional Information
 Earth MOID = 1.10077 au 
 Jupiter MOID = 2.38373 au 
 T_jup = 3.360 
[ show covariance matrix ]

Ephemeris | Orbit Diagram | Orbital Elements | Mission Design | Physical Parameters | Discovery Circumstances ]

Physical Parameter Table
Parameter Symbol Value Units Sigma Reference Notes
absolute magnitude H 17.5   n/a MPO495186  

441265 (2007 VF315)          Discovered 2007-Nov-05 by Spacewatch at Kitt Peak
Reference: Last Updated: 2015-09-02

Alternate Designations
 2007 VF315 = 2011 VX1 
Ephemeris | Orbit Diagram | Orbital Elements | Mission Design | Physical Parameters | Discovery Circumstances ]
ABOUT SSD CREDITS/AWARDS PRIVACY/COPYRIGHT GLOSSARY LINKS
FirstGov 2020-May-26 20:15 UT
(server date/time)  
NASA Home Page
Site Manager:   Ryan S. Park
Webmaster  Alan B. Chamberlin